Humidity-temperature Sensor

Selected Measurement Type: Air Temperature

 
Air Temperature [°C]     6 entries per hour
Showing data from 8/24/2018 (00:00:00 Z) to 8/23/2018 (00:01:00 Z)
Previous Next [ Day | 3-Days | 7-Days ]
First Last
Prev [ Day | 3-Days | 7-Days ] Next
First Last

Start Time:     :
End Time:     :     
Time (in GMT) :00 :50 :40 :30 :20 :10
Previous Next [ Day | 3-Days | 7-Days ]
First Last
Prev [ Day | 3-Days | 7-Days ] Next
First Last


123 => good data
MM => data is determined as missing
-- => data not received/configured
Back to Top Back to Top
8/24/2018 00:00 to 23:10 22.12 21.99 22.18 22.05 22.27 22.17
8/23/2018 23:00 to 22:10 22.42 22.14 21.99 21.53 21.01 21.13
8/23/2018 22:00 to 21:10 21.73 21.55 21.43 21.88 21.60 21.62
8/23/2018 21:00 to 20:10 22.18 22.05 22.28 22.18 22.31 22.20
8/23/2018 20:00 to 19:10 21.76 22.05 21.86 22.15 21.77 21.85
8/23/2018 19:00 to 18:10 21.71 21.94 22.46 22.38 22.43 22.35
8/23/2018 18:00 to 17:10 22.32 22.72 22.54 22.55 22.55 22.59
8/23/2018 17:00 to 16:10 22.66 22.65 22.58 22.26 22.42 22.19
8/23/2018 16:00 to 15:10 22.22 22.14 22.47 22.38 22.55 22.66
8/23/2018 15:00 to 14:10 22.63 22.49 22.48 22.64 22.42 22.44
8/23/2018 14:00 to 13:10 22.13 22.12 22.43 22.32 22.31 22.23
8/23/2018 13:00 to 12:10 22.30 22.17 22.23 22.21 21.97 22.12
8/23/2018 12:00 to 11:10 22.12 22.29 22.00 21.67 22.00 22.02
8/23/2018 11:00 to 10:10 21.80 21.68 21.28 21.55 21.37 21.39
8/23/2018 10:00 to 9:10 21.73 21.58 21.50 21.86 21.35 21.38
8/23/2018 09:00 to 8:10 21.32 21.26 21.87 21.72 21.67 22.01
8/23/2018 08:00 to 7:10 22.03 21.79 21.80 22.35 22.21 22.76
8/23/2018 07:00 to 6:10 22.55 22.43 22.67 22.71 22.83 22.98
8/23/2018 06:00 to 5:10 22.77 22.86 22.90 23.01 23.09 22.84
8/23/2018 05:00 to 4:10 22.95 22.92 22.81 23.04 22.99 23.08
8/23/2018 04:00 to 3:10 22.93 23.12 23.28 23.12 23.09 22.72
8/23/2018 03:00 to 2:10 22.79 22.79 22.79 23.10 23.07 22.88
8/23/2018 02:00 to 1:10 22.97 23.01 23.11 22.99 23.04 22.88
8/23/2018 01:00 to 0:10 23.01 22.92 22.87 22.92 22.93 22.86